User: anonymous   Login
Location: Lawrence
(38.9720°N, 95.2350°W)
Time: 04:18:23
(UTC-05:00)
Language:

JAS-1B - Orbit

View from above orbital plane
View from above orbital plane
View from above satellite
View from above satellite

Ground track
Ground track

The orbit data is extracted from the following two-line orbital elements,

1 20480U 90013C   14295.81500936  .00000018  00000-0  10535-3 0  8816
2 20480 099.0624 235.0304 0540881 064.8020 349.8643 12.83397458157504
Epoch (UTC): 22 October 2014 19:33:36
Eccentricity: 0.0540881
inclination: 99.0624°
perigee height: 911 km
apogee height: 1744 km
right ascension of ascending node: 235.0304°
argument of perigee: 64.8020°
revolutions per day: 12.83397458
mean anomaly at epoch: 349.8643°
orbit number at epoch: 15750

The dashed part of the orbit path shows where the satellite is in the earth's shadow,  

DLR